Location: Rounton
(54.4000°N, 1.3500°W)
Time: 06:38:23
(UTC+01:00)

deb Agena D - Pass Details

Date: 13 June 2023
Orbit: 996 x 1023 km, 100.1° (Epoch: 29 September)

Event Time Altitude Azimuth Distance (km) Brightness Sun altitude
Exits shadow 02:22:45 13° 210° (SSW) 2,573 ? -10.6°
Maximum altitude 02:27:28 30° 267° (W) 1,723 ? -10.4°
Drops below altitude 10° 02:32:51 10° 326° (NNW) 2,778 ? -10.2°
Sets 02:35:41 0° 338° (NNW) 3,731 ? -10.0°
